Volver al catálogo

MOLNIYA 1-53

ActivoComunicacionesHEO
NORAD 13070·PAYLOAD·🇷🇺 Russia

Lanzado Feb 26, 1982 desde Plesetsk Cosmodrome

Loading…

Próximos Pases (próximas 24 horas)

TLE

ActualizadoSource: Space-Track

Época: Sep 13, 2026, 11:15 UTC

1 13070U 82015A   26256.46924209  .00000936  00000-0  15641-1 0  9990
2 13070  63.9053  25.5408 7127050 283.4830  12.0477  2.00836915326335

Sigue MOLNIYA 1-53 en tiempo real con AllMySat

Download on the App Store